User: anonymous   Login
Location: Oberwangen
(47.4286°N, 8.9679°E)
Time: 00:56:28
(UTC+00:00)
Language:

Cosmos 1844 - Orbit

View from above orbital plane
View from above orbital plane
View from above satellite
View from above satellite

Ground track
Ground track

The orbit data is extracted from the following two-line orbital elements,

1 17973U 87041A   21269.58618807 -.00000171  00000-0 -64156-4 0  9997
2 17973  70.8991 220.5619 0033613 299.4075  60.3692 14.14133143773817
Epoch (UTC): 26 September 2021 14:04:06
Eccentricity: 0.0033613
inclination: 70.8991°
perigee height: 821 km
apogee height: 869 km
right ascension of ascending node: 220.5619°
argument of perigee: 299.4075°
revolutions per day: 14.14133143
mean anomaly at epoch: 60.3692°
orbit number at epoch: 77381

The dashed part of the orbit path shows where the satellite is in the earth's shadow,  

DLR